SCP
0 0 0 0 0 0 0 0 0 0 0 0 0 0 0 0 0 0 0 0 0 0 0 0 0 0 0 0 0 0 0 0 0 0 0 0 0 0
0 0 0 0 0 0 0 0 0 0 0 0 0 0 0 0 0 0 0 0 0 0 0 0 0 0 0 0 0 0 0 0 0 0 0 0 0 0
0 0 0 0 0 0 0 0 0 0 0 0 0 0 0 0 0 0 0 0 0 0 0 0 0 0 0 0 0 0 0 0 0 0 0 0 0 0
0 0 0 0 0 0 0 0 0 0 0 0 0 0 0 0 0 0 0 0 0 0 0 0 0 0 0 0 0 0 0 0 0 0 0 0 0 0
0 0 0 0 0 0 0 0 0 0 0 0 0 0 0 0 0 0 0 0 0 0 0 0 0 0 0 0 0 0 0 0 0 0 0 0 0 0
0 0 0 0 0 0 0 0 0 0 0 0 0 0 0 0 0 0 0 0 0 0 0 0 0 0 0 0 0 0 0 0 0 0 0 0 0 0
0 0 0 0 0 0 0 0 0 0 0 0 0 0 0 0 0 0 0 0 0 0 0 0 0 0 0 0 0 0 0 0 0 0 0 0 0 0
0 0 0 0 0 0 0 0 0 0 0 0 0 0 0 0 0 0 0 0 0 0 0 0 0 0 0 0 0 0 0 0 0 0 0 0 0 0
0 0 0 0 0 0 0 0 0 0 0 0 0 0 0 0 0 0 0 0 0 0 0 0 0 0 0 0 0 0 0 0 0 0 0 0 0 0
0 0 0 0 0 0 0 0 0 0 0 0 0 0 0 0 0 0 0 0 0 0 0 0 0 0 0 0 0 0 0 0 0 0 0 0 0 0
0 0 0 0 0 0 0 0 0 0 0 0 0 0 0 0 0 0 0 0 0 0 0 0 0 0 0 0 0 0 0 0 0 0 0 0 0 0
0 0 0 0 0 0 0 0 0 0 0 0 0 0 0 0 0 0 0 0 0 0 0 0 0 0 0 0 0 0 0 0 0 0 0 0 0 0
0 0 0 0 0 0 0 0 0 0 0 0 0 0 0 0 0 0 0 0 0 0 0 0 0 0 0 0 0 0 0 0 0 0 0 0 0 0
0 0 0 0 0 0 0 0 0 0 0 0 0 0 0 0 0 0 0 0 0 0 0 0 0 0 0 0 0 0 0 0 0 0 0 0 0 0
0 0 0 0 0 0 0 0 0 0 0 0 0 0 0 0 0 0 0 0 0 0 0 0 0 0 0 0 0 0 0 0 0 0 0 0 0 0
0 0 0 0 0 0 0 0 0 0 0 0 0 0 0 0 0 0 0 0 0 0 0 0 0 0 0 0 0 0 0 0 0 0 0 0 0 0
0 0 0 0 0 0 0 0 0 0 0 0 0 0 0 0 0 0 0 0 0 0 0 0 0 0 0 0 0 0 0 0 0 0 0 0 0 0
0 0 0 0 0 0 0 0 0 0 0 0 0 0 0 0 0 0 0 0 0 0 0 0 0 0 0 0 0 0 0 0 0 0 0 0 0 0
0 0 0 0 0 0 0 0 0 0 0 0 0 0 0 0 0 0 0 0 0 0 0 0 0 0 0 0 0 0 0 0 0 0 0 0 0 0
0 0 0 0 0 0 0 0 0 0 0 0 0 0 0 0 0 0 0 0 0 0 0 0 0 0 0 0 0 0 0 0 0 0 0 0 0 0
0 0 0 0 0 0 0 0 0 0 0 0 0 0 0 0 0 0 0 0 0 0 0 0 0 0 0 0 0 0 0 0 0 0 0 0 0 0
0 0 0 0 0 0 0 0 0 0 0 0 0 0 0 0 0 0 0 0 0 0 0 0 0 0 0 0 0 0 0 0 0 0 0 0 0 0
0 0 0 0 0 0 0 0 0 0 0 0 0 0 0 0 0 0 0 0 0 0 0 0 0 0 0 0 0 0 0 0 0 0 0 0 0 0
Wind_Speed
7 6 4 3 3 2 2 3 5 5 5 4 2 2 2 2 3 4 5 8 12 15 17 18 19 19 20 21 21 22 22 22 23 23 24 24 24 25
6 8 7 5 5 4 4 4 3 3 3 3 2 2 3 3 5 6 7 12 15 16 17 18 19 20 21 21 22 22 22 23 23 24 24 25 25 25
8 9 9 8 6 5 5 4 4 3 3 2 2 2 3 4 5 6 7 8 9 14 16 18 20 20 21 21 21 22 22 23 23 24 24 25 26 26
10 10 10 8 8 6 5 5 4 3 3 3 2 3 5 5 7 8 7 7 8 13 17 19 20 20 20 20 20 21 21 22 23 23 24 25 26 26
10 10 10 9 8 5 5 4 3 3 2 2 2 3 4 5 7 8 9 8 9 11 15 17 18 19 19 20 21 21 22 22 23 24 25 25 26 27
9 9 8 7 7 6 4 4 3 3 3 3 3 4 4 5 6 6 7 7 8 8 11 13 16 18 19 20 21 22 22 23 23 24 24 25 26 26
10 9 8 8 8 5 3 3 3 2 2 3 4 4 5 5 5 6 7 8 9 9 8 8 9 9 11 15 18 20 21 22 23 23 24 25 26 26
9 8 7 7 6 5 3 2 3 3 3 4 5 6 7 7 6 6 8 9 8 6 8 10 10 11 11 11 16 21 22 24 24 25 25 26 26 27
8 6 5 4 4 1 0 2 3 4 6 6 7 8 7 7 7 9 9 10 11 10 11 12 11 12 11 12 20 23 24 25 25 25 25 25 26 26
6 5 4 3 1 1 2 3 4 4 5 5 7 7 7 8 8 9 10 11 12 10 10 12 11 12 11 11 18 22 24 24 24 24 24 24 24 25
5 3 2 1 1 4 3 4 5 5 5 8 10 11 13 14 12 8 8 8 10 10 8 8 9 10 11 12 13 19 20 22 23 24 25 25 25 24
3 2 2 3 4 5 4 4 5 6 6 7 8 9 9 9 10 8 7 7 7 7 5 5 7 8 8 8 8 9 12 17 22 24 25 24 24 15
1 1 2 4 6 6 5 5 6 8 8 7 7 7 6 5 5 5 5 6 8 8 7 6 7 7 8 9 9 9 11 11 12 14 17 21 21 17
2 2 2 5 7 7 6 7 9 8 5 5 6 6 5 5 5 6 8 9 10 13 13 10 9 9 10 12 11 10 9 10 11 12 11 15 17 19
3 4 6 7 7 5 4 6 6 4 4 5 5 6 6 6 7 7 8 9 11 13 13 14 12 11 11 11 12 12 12 11 11 10 9 9 10 10
3 3 5 5 4 5 4 3 3 4 5 5 6 6 6 6 7 7 7 8 9 9 8 10 12 13 12 14 13 15 13 10 9 10 11 12 11 11
4 3 3 3 3 2 3 3 3 4 4 5 6 6 7 7 7 6 6 7 8 9 10 8 9 11 14 14 14 15 14 13 12 12 12 13 12 12
4 4 3 3 4 4 4 4 4 4 4 5 6 6 7 7 8 8 7 8 10 11 11 10 10 10 10 12 17 17 14 13 12 12 12 13 15 12
4 3 4 4 4 4 4 5 5 5 5 6 7 7 7 7 8 9 9 9 10 11 11 10 10 10 13 14 9 12 13 13 13 13 12 13 15 14
3 4 4 4 5 5 5 5 6 6 6 6 7 7 7 8 8 9 9 11 11 12 12 11 10 10 12 15 15 15 15 15 13 14 13 13 14 18
4 4 5 5 5 5 6 6 7 7 8 7 8 8 8 8 9 10 10 15 14 12 13 12 12 15 13 12 13 14 12 13 15 14 14 14 15 14
5 5 5 6 6 6 6 6 7 8 8 8 8 8 8 9 10 12 11 12 11 12 14 13 13 12 11 13 15 17 17 14 13 18 21 20 13 11
6 6 6 7 6 6 6 8 9 8 8 8 8 9 9 9 10 11 12 12 12 14 14 14 13 11 12 13 15 15 18 18 14 13 12 14 20 26
Wind_Direction
191 176 159 139 124 109 110 142 153 167 182 160 157 160 157 184 208 252 274 280 290 292 294 295 294 292 291 290 288 287 286 285 283 281 279 278 277 275
159 154 143 134 119 107 102 84 86 131 154 153 167 162 184 207 234 261 270 278 279 283 286 289 289 290 288 286 285 284 283 282 281 280 280 279 278 277
149 146 136 129 119 108 102 98 94 104 140 145 162 172 204 237 254 257 263 270 274 278 283 287 289 287 285 284 284 283 283 282 281 281 280 279 279 278
141 135 130 124 116 114 113 111 111 107 133 164 176 193 223 245 261 270 272 272 275 281 285 287 287 286 285 284 283 282 281 281 282 282 281 280 280 280
131 130 130 128 123 121 118 117 116 120 131 177 214 220 237 250 268 272 273 274 276 279 284 285 286 285 285 283 282 282 283 283 283 282 280 279 278 278
107 110 114 118 121 123 120 123 133 155 182 217 241 249 254 259 268 278 284 285 286 285 283 283 283 283 282 281 281 282 282 281 280 279 277 276 274 273
92 90 93 104 115 119 128 147 169 199 222 243 257 265 266 271 276 287 290 295 291 288 285 284 285 281 282 280 278 276 277 278 278 277 276 274 273 271
92 88 90 90 98 102 122 185 217 237 248 256 266 270 278 284 290 292 294 296 297 290 293 291 288 285 283 279 280 282 281 280 279 278 277 276 275 273
90 95 98 98 91 93 167 257 258 271 272 276 276 279 288 294 296 292 287 287 285 290 293 288 287 284 283 280 282 281 281 281 281 281 279 277 275 273
93 100 109 118 115 268 260 265 266 263 271 274 278 284 286 288 284 281 282 284 282 280 277 282 286 285 288 285 284 282 282 283 283 282 280 278 276 275
101 95 74 37 313 285 278 276 284 282 271 276 284 285 287 287 288 287 283 283 286 289 288 281 285 294 291 284 281 281 280 281 282 282 281 280 279 278
94 72 28 340 323 315 305 289 291 301 301 292 284 279 279 280 278 269 269 273 280 287 282 278 290 306 296 280 281 285 284 282 281 280 280 279 279 277
23 2 7 331 323 329 319 298 300 301 297 295 292 290 288 284 279 273 265 257 263 265 274 288 283 282 275 288 290 283 279 281 283 282 281 280 278 273
341 337 336 330 329 326 314 306 303 301 292 289 288 293 298 298 296 291 280 267 257 261 271 274 270 273 276 282 283 284 281 282 282 282 281 281 278 273
342 345 337 333 321 306 300 306 304 288 283 285 289 293 295 295 294 288 281 271 266 261 260 256 254 259 260 265 273 283 291 289 280 275 275 275 276 275
315 317 316 313 299 297 299 288 281 289 294 289 293 295 294 289 285 286 291 297 292 284 260 246 244 248 256 261 268 275 278 278 279 280 280 278 273 267
318 301 304 309 307 306 298 292 287 280 278 284 288 290 289 289 288 290 286 287 281 289 295 285 256 245 248 257 267 267 270 272 272 278 280 280 276 270
307 297 305 309 312 313 309 306 299 289 290 289 285 283 286 289 291 290 283 280 281 284 288 293 293 287 276 256 237 255 265 271 276 277 277 280 281 276
293 297 300 301 300 298 297 295 293 292 291 282 279 280 281 282 284 286 286 284 282 284 286 288 287 286 290 294 275 234 257 278 282 281 278 275 279 281
291 293 294 295 294 294 294 293 292 291 285 280 278 277 275 277 280 282 283 283 286 288 288 285 281 280 282 290 291 286 263 265 275 280 283 282 278 279
294 290 289 289 289 289 288 287 286 284 283 282 278 276 274 274 276 279 281 284 285 285 287 287 283 283 281 279 278 281 280 261 257 268 281 284 287 286
290 290 289 287 287 285 284 283 282 280 281 276 275 275 274 273 275 279 280 283 283 283 285 286 286 285 281 281 284 289 294 291 276 263 260 259 269 277
288 288 287 286 281 279 278 277 278 278 277 277 276 276 276 276 276 277 279 280 281 283 287 289 290 288 285 283 285 289 292 296 296 294 280 259 252 256